Location: *
(51.1248°S, 108.4023°W)
Time: 12:42:52
(UTC+00:00)

USA 281 - Pass Details

Date: 25 October 2021
Orbit: 1078 x 1081 km, 106.0° (Epoch: 25 November)

Event Time Altitude Azimuth Distance (km) Brightness Sun altitude
Exits shadow 04:14:41 - 347° (NNW) 3,371 5.5 -17.5°
Reaches altitude 10° 04:16:05 10° 341° (NNW) 2,927 5.2 -17.6°
Maximum altitude 04:21:42 29° 282° (WNW) 1,870 4.7 -18.2°
Drops below altitude 10° 04:27:23 10° 223° (SW) 2,956 6.8 -18.8°
Sets 04:30:20 0° 212° (SSW) 3,919 7.8 -19.1°
